User: anonymous   Login
Location: Unspecified
(0.0000°N, 0.0000°E)
Time: 08:42:18
(UTC+00:00)
Language:

COSMOS 2391 - Orbit

View from above orbital plane
View from above orbital plane
View from above satellite
View from above satellite

Ground track
Ground track

The orbit data is extracted from the following two-line orbital elements,

1 27465U 02036B   17293.83778465  .00000014  00000-0  31552-4 0  9990
2 27465  82.4846 159.3682 0025898 333.0148  26.9589 12.44878877694729
Epoch (UTC): 20 October 2017 20:06:24
Eccentricity: 0.0025898
inclination: 82.4846°
perigee height: 1465 km
apogee height: 1506 km
right ascension of ascending node: 159.3682°
argument of perigee: 333.0148°
revolutions per day: 12.44878877
mean anomaly at epoch: 26.9589°
orbit number at epoch: 69472

The dashed part of the orbit path shows where the satellite is in the earth's shadow,  

DLR